CW6538 Cattolica IT current weather conditions

sailwx.info

Wind from 187 at 0 knots gusting 2

Air temperature 3.9° C
Dewpoint 2.6° C

Last reported at 2020-Jan-27 08:08 UTC.
Time now 2020-Jan-27 09:12 UTC

Location: N 43°58' E 012°45'.
View on Google Maps.

See reports from other nearby stations

  
Tides and Currents Weather Stations Pressure Air Temp Water Temp Dewpoint Dewpoint Depression Visibility Wind Speed Wind Dir Waves Ship Positions
date/time (UTC)wind fromknots sea level pressurealtimeterstation pressurevisibilityair tempwater tempwave heightnotes
2020-Jan-27 08:08 187 0 gusting 2 3.9
2020-Jan-27 08:03 186 1 gusting 2 3.3
2020-Jan-27 07:53 187 1 gusting 3 3.3
2020-Jan-27 07:48 187 1 gusting 3 3.3
2020-Jan-27 07:43 186 2 gusting 3 3.3
2020-Jan-27 07:38 190 1 gusting 3 2.8
2020-Jan-27 07:33 190 1 gusting 3 2.8
2020-Jan-27 07:28 190 1 gusting 2 2.8
2020-Jan-27 07:23 190 1 gusting 3 2.8
2020-Jan-27 07:18 190 2 gusting 3 2.8
2020-Jan-27 07:13 190 2 gusting 3 2.8
2020-Jan-27 07:08 191 1 gusting 3 2.8
2020-Jan-27 07:03 191 2 gusting 3 2.2
2020-Jan-27 06:58 190 2 gusting 3 2.2
2020-Jan-27 06:53 191 2 gusting 3 2.2
2020-Jan-27 06:48 191 1 gusting 3 2.8
2020-Jan-27 06:43 190 1 gusting 2 2.8
2020-Jan-27 06:38 190 0 gusting 2 2.8
2020-Jan-27 06:33 190 1 gusting 3 2.8
2020-Jan-27 06:28 190 2 gusting 3 2.8
2020-Jan-27 06:23 190 2 gusting 3 2.8
2020-Jan-27 06:18 195 1 gusting 3 2.8
2020-Jan-27 06:13 195 1 gusting 2 2.8
2020-Jan-27 06:08 194 1 gusting 3 2.8
2020-Jan-27 06:03 194 2 gusting 3 2.8
2020-Jan-27 05:58 180 2 gusting 3 2.8
2020-Jan-27 05:53 180 1 gusting 3 2.8
2020-Jan-27 05:48 171 2 gusting 4 2.2
2020-Jan-27 05:43 171 2 gusting 4 2.2
2020-Jan-27 05:38 170 2 gusting 5 2.8
2020-Jan-27 05:33 192 1 gusting 3 2.2
2020-Jan-27 05:28 191 2 gusting 3 2.2
2020-Jan-27 05:23 188 1 gusting 3 2.2
2020-Jan-27 05:18 188 2 gusting 3 2.2
2020-Jan-27 05:13 196 1 gusting 3 2.2
2020-Jan-27 05:08 196 1 gusting 3 2.2
2020-Jan-27 05:03 196 1 gusting 3 2.2
2020-Jan-27 04:58 196 1 gusting 3 2.2
2020-Jan-27 04:53 196 0 gusting 4 2.2
2020-Jan-27 04:48 196 2 gusting 4 2.2
2020-Jan-27 04:43 191 2 gusting 4 2.2
2020-Jan-27 04:33 202 2 gusting 4 2.2
2020-Jan-27 04:28 184 2 gusting 3 2.2
2020-Jan-27 04:23 184 1 gusting 3 2.2
2020-Jan-27 04:18 184 2 gusting 3 2.2
2020-Jan-27 04:13 184 1 gusting 3 2.2
2020-Jan-27 04:08 184 1 gusting 3 2.2
2020-Jan-27 04:03 184 1 gusting 3 2.2
2020-Jan-27 03:58 184 2 gusting 3 2.2
2020-Jan-27 03:53 184 2 gusting 3 2.2
2020-Jan-27 03:48 184 2 gusting 4 2.2
2020-Jan-27 03:43 184 1 gusting 4 2.2
2020-Jan-27 03:38 193 1 gusting 3 2.8
2020-Jan-27 03:33 193 1 gusting 3 2.8
2020-Jan-27 03:28 196 2 gusting 3 2.8
2020-Jan-27 03:23 196 1 gusting 2 2.8
2020-Jan-27 03:18 197 1 gusting 2 2.8
2020-Jan-27 03:13 196 1 gusting 2 2.8
2020-Jan-27 03:08 197 1 gusting 2 2.8
2020-Jan-27 03:03 196 1 gusting 2 2.8
2020-Jan-27 02:58 197 0 gusting 2 2.8
2020-Jan-27 02:53 196 1 gusting 2 3.3
2020-Jan-27 02:48 196 1 gusting 2 3.3
2020-Jan-27 02:43 196 1 gusting 2 3.3
2020-Jan-27 02:38 197 1 gusting 2 3.3
2020-Jan-27 02:33 196 1 gusting 2 3.3
2020-Jan-27 02:28 197 1 gusting 2 3.3
2020-Jan-27 02:23 197 1 gusting 3 3.3
2020-Jan-27 02:18 196 1 gusting 3 3.3
2020-Jan-27 02:13 196 1 gusting 3 3.3
2020-Jan-27 02:08 197 1 gusting 2 3.3
2020-Jan-27 02:03 196 0 gusting 3 3.3
2020-Jan-27 01:58 196 1 gusting 3 3.9
2020-Jan-27 01:53 197 1 gusting 2 3.9
2020-Jan-27 01:48 196 0 gusting 1 3.9
2020-Jan-27 01:43 196 3.9
2020-Jan-27 01:38 197 3.9
2020-Jan-27 01:33 196 3.9
2020-Jan-27 01:28 196 3.9
2020-Jan-27 01:23 197 1 gusting 2 3.9
2020-Jan-27 01:18 196 0 gusting 2 3.9
2020-Jan-27 01:13 197 1 gusting 3 3.9
2020-Jan-27 01:08 196 1 gusting 3 3.9
2020-Jan-27 01:03 202 2 gusting 3 4.4
2020-Jan-27 00:58 220 4.4
2020-Jan-27 00:53 219 4.4
2020-Jan-27 00:48 219 1 gusting 2 4.4
2020-Jan-27 00:43 196 1 gusting 2 4.4
2020-Jan-27 00:38 196 1 gusting 3 4.4
2020-Jan-27 00:33 197 1 gusting 3 4.4
2020-Jan-27 00:28 197 2 gusting 3 4.4
2020-Jan-27 00:23 197 1 gusting 2 4.4
2020-Jan-27 00:18 196 1 gusting 3 4.4
2020-Jan-27 00:13 197 1 gusting 4 4.4
2020-Jan-27 00:08 197 2 gusting 4 4.4
2020-Jan-27 00:03 197 1 gusting 3 4.4
2020-Jan-26 23:58 197 2 gusting 3 4.4
2020-Jan-26 23:53 197 1 gusting 2 4.4
2020-Jan-26 23:48 197 1 gusting 2 4.4
2020-Jan-26 23:43 197 1 gusting 3 4.4
2020-Jan-26 23:38 197 1 gusting 3 4.4
2020-Jan-26 23:33 200 1 gusting 3 4.4
2020-Jan-26 23:28 199 2 gusting 3 5.0
2020-Jan-26 23:23 200 2 gusting 3 5.0
2020-Jan-26 23:18 199 1 gusting 2 5.0
2020-Jan-26 23:13 199 1 gusting 2 5.0
2020-Jan-26 23:08 200 1 gusting 3 5.0
2020-Jan-26 23:03 199 1 gusting 3 5.0
2020-Jan-26 22:58 199 1 gusting 3 5.0
2020-Jan-26 22:53 199 2 gusting 3 5.0
2020-Jan-26 22:48 200 1 gusting 3 5.0
2020-Jan-26 22:43 200 1 gusting 3 5.0
2020-Jan-26 22:38 200 1 gusting 3 5.0
2020-Jan-26 22:33 200 1 gusting 2 5.0
2020-Jan-26 22:28 200 1 gusting 2 5.0
2020-Jan-26 22:23 200 1 gusting 2 5.0
2020-Jan-26 22:18 200 1 gusting 2 5.0
2020-Jan-26 22:13 200 1 gusting 1 5.0
2020-Jan-26 22:08 200 5.6
2020-Jan-26 22:03 200 5.6
2020-Jan-26 21:58 200 5.6
2020-Jan-26 21:53 200 5.6
2020-Jan-26 21:48 200 5.6
2020-Jan-26 21:43 200 1 gusting 2 5.6
2020-Jan-26 21:38 200 1 gusting 2 5.6
2020-Jan-26 21:33 200 0 gusting 2 5.6
2020-Jan-26 21:28 200 0 gusting 2 5.6
2020-Jan-26 21:23 200 0 gusting 3 5.6
2020-Jan-26 21:18 200 1 gusting 3 6.1
2020-Jan-26 21:13 200 1 gusting 2 6.1
2020-Jan-26 21:08 200 6.1
2020-Jan-26 21:03 200 6.1
2020-Jan-26 20:58 200 2 gusting 3 6.1
2020-Jan-26 20:53 200 1 gusting 3 6.1
2020-Jan-26 20:48 200 1 gusting 2 6.1
2020-Jan-26 20:43 200 0 gusting 2 6.7
2020-Jan-26 20:38 201 1 gusting 2 6.7
2020-Jan-26 20:33 201 1 gusting 2 6.7
2020-Jan-26 20:28 201 1 gusting 2 6.7
2020-Jan-26 20:23 200 1 gusting 2 6.7
2020-Jan-26 20:18 200 0 gusting 2 6.7
2020-Jan-26 20:13 200 1 gusting 2 6.7
2020-Jan-26 20:08 200 1 gusting 2 6.7
2020-Jan-26 20:03 200 1 gusting 2 6.7
2020-Jan-26 19:58 200 1 gusting 2 7.2
2020-Jan-26 19:53 201 1 gusting 2 7.2
2020-Jan-26 19:48 200 1 gusting 2 7.2
2020-Jan-26 19:43 200 1 gusting 2 7.2
2020-Jan-26 19:38 200 1 gusting 2 7.2
2020-Jan-26 19:33 200 1 gusting 2 7.2
2020-Jan-26 19:28 201 0 gusting 2 7.2
2020-Jan-26 19:23 200 1 gusting 2 7.2
2020-Jan-26 19:18 200 1 gusting 2 7.2
2020-Jan-26 19:13 200 0 gusting 2 7.2
2020-Jan-26 19:08 201 0 gusting 2 7.2
2020-Jan-26 19:03 200 1 gusting 2 7.2
2020-Jan-26 18:58 200 1 gusting 2 7.8
2020-Jan-26 18:53 200 0 gusting 2 7.8
2020-Jan-26 18:48 200 1 gusting 2 7.8
2020-Jan-26 18:43 200 1 gusting 2 7.8
2020-Jan-26 18:38 200 7.8
2020-Jan-26 18:33 200 0 gusting 2 7.8
2020-Jan-26 18:28 200 1 gusting 2 7.8
2020-Jan-26 18:23 200 0 gusting 2 7.8
2020-Jan-26 18:18 200 0 gusting 2 7.8
2020-Jan-26 18:13 200 1 gusting 2 7.8
2020-Jan-26 18:08 201 7.8
2020-Jan-26 18:03 200 2 gusting 4 7.8
2020-Jan-26 17:58 200 2 gusting 4 7.8
2020-Jan-26 17:53 195 1 gusting 3 7.8
2020-Jan-26 17:48 195 2 gusting 3 7.8
2020-Jan-26 17:43 196 1 gusting 4 7.8
2020-Jan-26 17:38 209 2 gusting 4 7.8
2020-Jan-26 17:33 205 1 gusting 4 7.8
2020-Jan-26 17:28 196 2 gusting 4 7.8
2020-Jan-26 17:23 200 1 gusting 3 7.8
2020-Jan-26 17:18 267 1 gusting 2 7.8
2020-Jan-26 17:13 326 1 gusting 2 7.8
2020-Jan-26 17:08 328 7.8
2020-Jan-26 17:03 329 7.8
2020-Jan-26 16:58 329 7.8
2020-Jan-26 16:53 329 7.8
2020-Jan-26 16:48 329 7.8
2020-Jan-26 16:43 329 7.8
2020-Jan-26 16:38 329 7.8
2020-Jan-26 16:33 329 7.8
2020-Jan-26 16:28 329 7.8
2020-Jan-26 16:23 329 7.8
2020-Jan-26 16:18 329 7.8
2020-Jan-26 16:13 329 0 gusting 5 7.8
2020-Jan-26 16:08 328 1 gusting 5 7.8
2020-Jan-26 16:03 346 2 gusting 4 7.8
2020-Jan-26 15:58 334 1 gusting 2 7.8
2020-Jan-26 15:53 334 7.8
2020-Jan-26 15:48 334 1 gusting 2 7.8
2020-Jan-26 15:43 316 1 gusting 3 7.8
2020-Jan-26 15:38 313 1 gusting 3 7.8
2020-Jan-26 15:33 355 1 gusting 3 7.8
2020-Jan-26 15:28 348 0 gusting 3 7.8
2020-Jan-26 15:23 334 1 gusting 3 7.8
2020-Jan-26 15:18 009 1 gusting 3 7.8
2020-Jan-26 15:13 355 0 gusting 2 7.8
2020-Jan-26 15:08 355 7.8
2020-Jan-26 15:03 333 2 gusting 3 7.8
2020-Jan-26 14:58 013 1 gusting 4 7.8
2020-Jan-26 14:53 013 1 gusting 5 7.8
2020-Jan-26 14:48 016 3 gusting 5 7.8
2020-Jan-26 14:43 005 4 gusting 5 7.8
2020-Jan-26 14:38 010 2 gusting 4 7.8
2020-Jan-26 14:33 355 2 gusting 4 7.8
2020-Jan-26 14:28 005 1 gusting 5 7.8
2020-Jan-26 14:23 009 3 gusting 6 7.8
2020-Jan-26 14:18 355 2 gusting 6 7.8
2020-Jan-26 14:13 351 3 gusting 4 7.8
2020-Jan-26 14:08 346 1 gusting 4 7.8
2020-Jan-26 14:03 355 2 gusting 5 7.8
2020-Jan-26 13:58 355 2 gusting 5 7.8
2020-Jan-26 13:53 355 3 gusting 4 7.8
2020-Jan-26 13:48 355 2 gusting 3 7.8
2020-Jan-26 13:43 355 1 gusting 3 7.8
2020-Jan-26 13:38 355 2 gusting 4 7.8
2020-Jan-26 13:33 355 2 gusting 4 7.8
2020-Jan-26 13:28 360 2 gusting 5 7.8
2020-Jan-26 13:23 348 3 gusting 6 7.8
2020-Jan-26 13:18 355 4 gusting 6 7.8
2020-Jan-26 13:13 012 3 gusting 5 7.8
2020-Jan-26 13:08 348 2 gusting 5 7.8
2020-Jan-26 13:03 360 1 gusting 3 8.3
2020-Jan-26 12:58 360 1 gusting 5 7.8
2020-Jan-26 12:53 348 3 gusting 6 7.8
2020-Jan-26 12:48 329 4 gusting 5 7.8
2020-Jan-26 12:43 348 2 gusting 5 8.3
2020-Jan-26 12:38 324 2 gusting 4 8.3
2020-Jan-26 12:33 014 2 gusting 6 8.3
2020-Jan-26 12:28 331 3 gusting 6 8.3
2020-Jan-26 12:23 009 3 gusting 6 8.3
2020-Jan-26 12:18 325 2 gusting 4 8.3
2020-Jan-26 12:13 355 1 gusting 3 8.3
2020-Jan-26 12:08 355 1 gusting 3 8.3
2020-Jan-26 12:03 342 2 gusting 5 8.3
2020-Jan-26 11:58 341 3 gusting 5 8.3
2020-Jan-26 11:53 345 2 gusting 6 8.3
2020-Jan-26 11:48 360 2 gusting 6 8.3
2020-Jan-26 11:43 355 3 gusting 6 8.3
2020-Jan-26 11:38 327 4 gusting 7 8.3
2020-Jan-26 11:33 342 5 gusting 7 8.3
2020-Jan-26 11:28 355 4 gusting 7 8.3
2020-Jan-26 11:23 344 4 gusting 7 8.3
2020-Jan-26 11:18 344 3 gusting 7 8.3
2020-Jan-26 11:13 351 5 gusting 7 8.3
2020-Jan-26 11:08 355 1 gusting 6 8.3
2020-Jan-26 11:03 305 2 gusting 7 8.3
2020-Jan-26 10:58 324 3 gusting 7 8.3
2020-Jan-26 10:53 309 3 gusting 6 8.3
2020-Jan-26 10:48 333 3 gusting 6 7.8
2020-Jan-26 10:43 339 3 gusting 7 7.8
2020-Jan-26 10:38 348 5 gusting 7 7.8
2020-Jan-26 10:33 350 3 gusting 6 8.3
2020-Jan-26 10:28 005 2 gusting 7 7.8
2020-Jan-26 10:23 346 3 gusting 7 7.8
2020-Jan-26 10:18 005 3 gusting 5 7.8
2020-Jan-26 10:13 355 2 gusting 4 7.8
2020-Jan-26 10:08 309 3 gusting 5 7.8
2020-Jan-26 10:03 327 0 gusting 2 7.8
2020-Jan-26 09:58 321 7.2
2020-Jan-26 09:53 322 1 gusting 4 7.2
2020-Jan-26 09:48 346 2 gusting 3 7.2
2020-Jan-26 09:43 281 1 gusting 3 7.2
2020-Jan-26 09:38 261 0 gusting 4 6.7
2020-Jan-26 09:33 259 1 gusting 4 6.7
2020-Jan-26 09:28 247 1 gusting 3 6.7
2020-Jan-26 09:23 239 1 gusting 3 6.7
2020-Jan-26 09:18 171 1 gusting 4 6.7
2020-Jan-26 09:13 157 1 gusting 2 6.1
2020-Jan-26 09:08 156 1 gusting 2 6.1
2020-Jan-26 09:03 156 1 gusting 2 6.1
2020-Jan-26 08:58 156 6.1
2020-Jan-26 08:53 156 0 gusting 1 6.1
2020-Jan-26 08:48 156 6.1
2020-Jan-26 08:43 156 1 gusting 2 5.6
2020-Jan-26 08:38 157 1 gusting 2 5.6
2020-Jan-26 08:33 153 0 gusting 2 5.6
2020-Jan-26 08:28 153 5.6
2020-Jan-26 08:23 152 5.6
2020-Jan-26 08:18 152 0 gusting 1 5.6
2020-Jan-26 08:13 152 5.6
2020-Jan-26 08:08 153 5.0
2020-Jan-26 08:03 153 0 gusting 1 5.0
2020-Jan-26 07:58 153 5.0
2020-Jan-26 07:53 152 5.0
2020-Jan-26 07:48 153 5.0
2020-Jan-26 07:43 153 5.0
2020-Jan-26 07:38 153 0 gusting 2 5.0
2020-Jan-26 07:33 152 5.0
2020-Jan-26 07:28 151 5.0
2020-Jan-26 07:23 151 5.0
2020-Jan-26 07:18 152 5.0
2020-Jan-26 07:13 151 5.0
2020-Jan-26 07:08 152 5.0
2020-Jan-26 07:03 151 5.0
2020-Jan-26 06:58 151 5.0
2020-Jan-26 06:53 151 5.0
2020-Jan-26 06:48 152 5.0
2020-Jan-26 06:43 151 1 gusting 2 5.0
2020-Jan-26 06:38 153 5.0
2020-Jan-26 06:33 153 0 gusting 3 5.6
2020-Jan-26 06:28 151 1 gusting 3 5.6
2020-Jan-26 06:23 279 5.6
2020-Jan-26 06:18 279 5.6
2020-Jan-26 06:13 279 5.6
2020-Jan-26 06:08 280 0 gusting 1 5.6
2020-Jan-26 06:03 279 5.6
2020-Jan-26 05:58 279 5.6
2020-Jan-26 05:53 279 5.6
2020-Jan-26 05:48 280 5.6
2020-Jan-26 05:43 280 5.6
2020-Jan-26 05:38 279 5.6
2020-Jan-26 05:33 280 5.6
2020-Jan-26 05:28 279 5.6
2020-Jan-26 05:23 279 6.1
2020-Jan-26 05:18 279 6.1
2020-Jan-26 05:13 279 6.1
2020-Jan-26 05:08 280 6.1
2020-Jan-26 05:03 279 6.1
2020-Jan-26 04:58 279 6.1
2020-Jan-26 04:53 279 6.1
2020-Jan-26 04:48 280 6.1
2020-Jan-26 04:43 279 6.1
2020-Jan-26 04:38 280 6.1
2020-Jan-26 04:33 279 6.1
2020-Jan-26 04:28 280 6.1
2020-Jan-26 04:23 280 6.1
2020-Jan-26 04:18 279 6.1
2020-Jan-26 04:13 279 6.1
2020-Jan-26 04:08 280 6.1
2020-Jan-26 04:03 280 6.1
2020-Jan-26 03:58 279 6.1
2020-Jan-26 03:53 279 6.1
2020-Jan-26 03:48 280 6.1
2020-Jan-26 03:43 279 6.1
2020-Jan-26 03:38 279 6.1
2020-Jan-26 03:33 280 6.1
2020-Jan-26 03:28 279 6.1
2020-Jan-26 03:23 280 6.1
2020-Jan-26 03:18 280 6.1
2020-Jan-26 03:13 279 6.1
2020-Jan-26 03:08 279 0 gusting 1 6.1
2020-Jan-26 03:03 279 6.1
2020-Jan-26 02:58 279 6.1
2020-Jan-26 02:53 279 6.1
2020-Jan-26 02:48 279 0 gusting 2 6.1
2020-Jan-26 02:43 279 0 gusting 2 6.1
2020-Jan-26 02:38 280 0 gusting 2 6.1
2020-Jan-26 02:33 279 6.1
2020-Jan-26 02:28 279 6.1
2020-Jan-26 02:23 279 6.1
2020-Jan-26 02:18 279 0 gusting 1 6.1
2020-Jan-26 02:13 280 0 gusting 1 6.1
2020-Jan-26 02:08 279 0 gusting 1 6.1
2020-Jan-26 02:03 279 0 gusting 2 6.1
2020-Jan-26 01:58 279 1 gusting 2 6.1
2020-Jan-26 01:53 279 1 gusting 2 6.1
2020-Jan-26 01:48 279 6.1
2020-Jan-26 01:43 279 6.1
2020-Jan-26 01:38 279 6.1
2020-Jan-26 01:33 279 6.1
2020-Jan-26 01:28 279 6.1
2020-Jan-26 01:23 279 1 gusting 2 6.1
2020-Jan-26 01:18 279 0 gusting 3 6.1
2020-Jan-26 01:13 279 0 gusting 3 6.1
2020-Jan-26 01:08 279 2 gusting 3 6.1
2020-Jan-26 01:03 279 1 gusting 3 6.1
2020-Jan-26 00:58 279 0 gusting 2 6.1
2020-Jan-26 00:53 279 1 gusting 2 6.1
2020-Jan-26 00:48 279 1 gusting 3 6.1
2020-Jan-26 00:43 279 2 gusting 3 6.1
2020-Jan-26 00:38 279 6.1
2020-Jan-26 00:33 279 0 gusting 3 6.1
2020-Jan-26 00:28 279 0 gusting 3 6.1
2020-Jan-26 00:23 284 1 gusting 3 6.1
2020-Jan-26 00:18 285 0 gusting 3 6.1
2020-Jan-26 00:13 290 2 gusting 5 6.1
2020-Jan-26 00:08 270 3 gusting 5 6.1
2020-Jan-26 00:03 298 0 gusting 2 6.1
2020-Jan-25 23:58 298 0 gusting 2 6.1
2020-Jan-25 23:53 298 1 gusting 3 6.1
2020-Jan-25 23:48 298 0 gusting 2 6.1
2020-Jan-25 23:43 298 0 gusting 2 6.1
2020-Jan-25 23:38 298 6.1
2020-Jan-25 23:33 298 6.1
2020-Jan-25 23:28 298 0 gusting 2 6.1
2020-Jan-25 23:23 298 1 gusting 3 6.1
2020-Jan-25 23:18 298 1 gusting 3 6.1
2020-Jan-25 23:13 298 0 gusting 3 6.1
2020-Jan-25 23:08 298 1 gusting 3 6.1
2020-Jan-25 23:03 298 1 gusting 3 6.1
2020-Jan-25 22:58 298 6.1
2020-Jan-25 22:53 298 0 gusting 2 6.1
2020-Jan-25 22:48 298 0 gusting 2 6.1
2020-Jan-25 22:43 298 6.1
2020-Jan-25 22:38 298 6.1
2020-Jan-25 22:33 298 6.1
2020-Jan-25 22:28 298 6.1
2020-Jan-25 22:23 298 6.1
2020-Jan-25 22:18 298 6.1
2020-Jan-25 22:13 298 0 gusting 2 6.1
2020-Jan-25 22:08 298 0 gusting 2 6.1
2020-Jan-25 22:03 298 6.1
2020-Jan-25 21:58 298 6.1
2020-Jan-25 21:53 298 6.1
2020-Jan-25 21:48 298 1 gusting 2 6.1
2020-Jan-25 21:43 298 0 gusting 3 6.1
2020-Jan-25 21:38 298 1 gusting 2 6.1
2020-Jan-25 21:33 298 0 gusting 2 6.1
2020-Jan-25 21:28 298 1 gusting 2 6.1
2020-Jan-25 21:23 298 6.1
2020-Jan-25 21:18 298 1 gusting 1 6.1
2020-Jan-25 21:13 298 6.1
2020-Jan-25 21:08 298 6.1
2020-Jan-25 21:03 298 6.1
2020-Jan-25 20:58 298 1 gusting 2 6.1
2020-Jan-25 20:53 298 1 gusting 2 6.1
2020-Jan-25 20:48 298 6.1
2020-Jan-25 20:43 298 6.7
2020-Jan-25 20:38 298 0 gusting 2 6.7
2020-Jan-25 20:33 298 6.7
2020-Jan-25 20:28 298 0 gusting 3 6.7
2020-Jan-25 20:23 298 1 gusting 3 6.7
2020-Jan-25 20:18 298 1 gusting 3 6.7
2020-Jan-25 20:13 298 6.7
2020-Jan-25 20:08 298 6.7
2020-Jan-25 20:03 298 6.7
2020-Jan-25 19:58 298 6.7
2020-Jan-25 19:53 298 6.7
2020-Jan-25 19:48 298 6.7
2020-Jan-25 19:43 298 6.7
2020-Jan-25 19:38 298 6.7
2020-Jan-25 19:33 298 6.7
2020-Jan-25 19:28 298 6.7
2020-Jan-25 19:23 298 0 gusting 2 6.7
2020-Jan-25 19:18 298 0 gusting 2 6.7
2020-Jan-25 19:13 336 6.7
2020-Jan-25 19:08 336 6.7
2020-Jan-25 19:03 336 6.7
2020-Jan-25 18:58 336 6.7
2020-Jan-25 18:53 336 6.7
2020-Jan-25 18:48 336 1 gusting 3 6.7
2020-Jan-25 18:43 336 6.7
2020-Jan-25 18:38 336 1 gusting 2 6.7
2020-Jan-25 18:33 336 1 gusting 3 6.7
2020-Jan-25 18:28 336 2 gusting 4 6.7
2020-Jan-25 18:23 304 2 gusting 4 6.7
2020-Jan-25 18:18 304 1 gusting 3 6.7
2020-Jan-25 18:13 304 1 gusting 3 6.7
2020-Jan-25 18:08 304 1 gusting 3 6.7
2020-Jan-25 18:03 304 1 gusting 3 6.7
2020-Jan-25 17:58 304 1 gusting 3 6.7
2020-Jan-25 17:53 304 0 gusting 3 6.7
2020-Jan-25 17:48 304 1 gusting 3 6.7
2020-Jan-25 17:43 304 6.7
2020-Jan-25 17:38 304 0 gusting 2 6.7
2020-Jan-25 17:33 304 6.7
2020-Jan-25 17:28 304 6.7
2020-Jan-25 17:23 304 1 gusting 2 6.7
2020-Jan-25 17:18 304 6.7
2020-Jan-25 17:13 304 6.7
2020-Jan-25 17:08 304 6.7
2020-Jan-25 17:03 304 6.7
2020-Jan-25 16:58 304 6.7
2020-Jan-25 16:53 304 0 gusting 3 6.7
2020-Jan-25 16:48 304 1 gusting 3 6.7
2020-Jan-25 16:43 304 6.7
2020-Jan-25 16:38 304 1 gusting 4 6.7
2020-Jan-25 16:33 301 1 gusting 4 6.7
2020-Jan-25 16:28 304 2 gusting 4 6.7
2020-Jan-25 16:23 325 0 gusting 6 6.7
2020-Jan-25 16:18 313 3 gusting 6 6.7
2020-Jan-25 16:13 311 3 gusting 5 6.7
2020-Jan-25 16:08 338 3 gusting 6 6.7
2020-Jan-25 16:03 302 2 gusting 4 6.7
2020-Jan-25 15:58 342 2 gusting 4 6.7
2020-Jan-25 15:53 294 2 gusting 6 6.7
2020-Jan-25 15:48 291 4 gusting 6 6.7
2020-Jan-25 15:43 307 1 gusting 6 6.7
2020-Jan-25 15:38 321 2 gusting 6 6.7
2020-Jan-25 15:33 300 2 gusting 6 6.7
2020-Jan-25 15:28 279 2 gusting 4 6.7
2020-Jan-25 15:23 280 1 gusting 6 6.7
2020-Jan-25 15:18 333 3 gusting 6 6.7
2020-Jan-25 15:13 284 3 gusting 6 6.7
2020-Jan-25 15:08 319 2 gusting 6 6.7
2020-Jan-25 15:03 322 3 gusting 5 6.7
2020-Jan-25 14:58 312 2 gusting 6 6.7
2020-Jan-25 14:53 298 2 gusting 6 6.7
2020-Jan-25 14:48 301 3 gusting 8 6.7
2020-Jan-25 14:43 298 5 gusting 10 6.7
2020-Jan-25 14:38 336 5 gusting 10 6.7
2020-Jan-25 14:33 303 4 gusting 7 6.7
2020-Jan-25 14:28 315 3 gusting 7 6.7
2020-Jan-25 14:23 294 3 gusting 7 6.7
2020-Jan-25 14:18 302 3 gusting 9 6.7
2020-Jan-25 14:13 297 1 gusting 9 6.7
2020-Jan-25 14:08 296 3 gusting 10 6.7
2020-Jan-25 14:03 338 3 gusting 10 6.7
2020-Jan-25 13:58 294 4 gusting 9 6.7
2020-Jan-25 13:53 309 6 gusting 9 6.7
2020-Jan-25 13:48 309 4 gusting 9 6.7
2020-Jan-25 13:43 307 3 gusting 10 6.7
2020-Jan-25 13:38 286 4 gusting 10 6.7
2020-Jan-25 13:33 316 4 gusting 8 6.7
2020-Jan-25 13:28 334 3 gusting 8 6.7
2020-Jan-25 13:23 327 3 gusting 8 6.7
2020-Jan-25 13:18 290 4 gusting 8 6.7
2020-Jan-25 13:13 333 6 gusting 8 6.7
2020-Jan-25 13:08 316 5 gusting 9 6.7
2020-Jan-25 13:03 324 5 gusting 9 6.7
2020-Jan-25 12:58 323 4 gusting 8 6.7
2020-Jan-25 12:53 305 4 gusting 7 6.7
2020-Jan-25 12:48 286 3 gusting 9 6.7
2020-Jan-25 12:43 337 5 gusting 9 6.7
2020-Jan-25 12:38 329 6 gusting 9 6.7
2020-Jan-25 12:33 327 6 gusting 9 6.7
2020-Jan-25 12:28 309 5 gusting 7 6.7
2020-Jan-25 12:23 329 4 gusting 7 6.7
2020-Jan-25 12:18 329 5 gusting 7 6.7
2020-Jan-25 12:13 311 3 gusting 6 6.7
2020-Jan-25 12:08 292 4 gusting 9 6.7
2020-Jan-25 12:03 312 5 gusting 7 6.7
2020-Jan-25 11:58 292 2 gusting 7 6.7
2020-Jan-25 11:53 340 3 gusting 8 6.7
2020-Jan-25 11:48 324 4 gusting 8 6.7
2020-Jan-25 11:43 325 4 gusting 7 6.7
2020-Jan-25 11:38 341 4 gusting 7 6.7
2020-Jan-25 11:33 325 4 gusting 6 6.7
2020-Jan-25 11:28 327 2 gusting 6 6.7
2020-Jan-25 11:23 323 3 gusting 6 6.7
2020-Jan-25 11:18 322 3 gusting 7 6.7
2020-Jan-25 11:13 313 5 gusting 7 6.7
2020-Jan-25 11:08 338 2 gusting 6 6.7
2020-Jan-25 11:03 321 3 gusting 8 6.7
2020-Jan-25 10:58 317 2 gusting 8 6.1
2020-Jan-25 10:53 317 3 gusting 6 6.1
2020-Jan-25 10:48 333 3 gusting 6 6.1
2020-Jan-25 10:43 309 2 gusting 6 6.1
2020-Jan-25 10:38 285 3 gusting 7 6.1
2020-Jan-25 10:33 289 4 gusting 7 6.1
2020-Jan-25 10:28 290 2 gusting 6 6.1
2020-Jan-25 10:23 273 2 gusting 8 6.1
2020-Jan-25 10:18 300 5 gusting 8 6.1
2020-Jan-25 10:13 322 3 gusting 6 6.1
2020-Jan-25 10:08 295 2 gusting 7 6.1
2020-Jan-25 10:03 290 2 gusting 7 6.1
2020-Jan-25 09:58 291 5 gusting 7 6.1
2020-Jan-25 09:53 261 2 gusting 6 6.1
2020-Jan-25 09:48 307 4 gusting 6 6.1
2020-Jan-25 09:43 316 1 gusting 7 6.1
2020-Jan-25 09:38 292 4 gusting 7 6.1
2020-Jan-25 09:33 294 3 gusting 6 6.1
2020-Jan-25 09:28 284 4 gusting 7 6.1
2020-Jan-25 09:23 330 4 gusting 7 6.1
2020-Jan-25 09:18 323 2 gusting 6 6.1
2020-Jan-25 09:13 291 2 gusting 5 6.1
2020-Jan-25 09:08 289 2 gusting 5 6.1
2020-Jan-25 09:03 300 2 gusting 6 6.1